Hourly Data Report for October 14, 2016

All times are specified in Local Standard Time (LST). Add 1 hour to adjust for Daylight Saving Time where and when it is observed.

HALL BEACH A
NUNAVUT

68°46'33.000" N
81°14'33.000" W
9.10 m
2402354
71293
YUX

Download Data

Hourly Data (October 2016)
Hourly Data Report for October 14, 2016
Temp Definition
°C
Dew Point Temp Definition
°C
Rel Hum Definition
%
Wind Dir Definition
10's deg

Wind Spd Definition
km/h
Visibility Definition
km
Stn Press Definition
kPa
Hmdx Definition


Wind Chill Definition


Weather Definition


TIME
00:00 Legend Double Dagger -7.3 -9.7 83 36 18 16.1 100.70   -14 LegendNANA
01:00 Legend Double Dagger -7.2 -9.5 84 2 21 16.1 100.67   -15 LegendNANA
02:00 Legend Double Dagger -7.1 -8.9 87 36 18 16.1 100.67   -14 LegendNANA
03:00 Legend Double Dagger -7.2 -9.5 84 1 22 16.1 100.66   -15 LegendNANA
04:00 Legend Double Dagger -7.3 -9.3 86 36 28 16.1 100.63   -16 LegendNANA
05:00 Legend Double Dagger -9.1 -10.2 92 33 32 6.4 100.64   -19 Fog
06:00 Legend Double Dagger -10.5 -11.6 92 33 28 16.1 100.62   -20 LegendNANA
07:00 Legend Double Dagger -10.2 -11.1 93 33 26 16.1 100.60   -19 LegendNANA
08:00 Legend Double Dagger -10.1 -11.2 92 32 21 16.1 100.60   -18 LegendNANA
09:00 Legend Double Dagger -13.1 -14.6 89 31 22 16.1 100.57   -22 LegendNANA
10:00 Legend Double Dagger -13.2 -14.7 89 32 26 16.1 100.55   -23 LegendNANA
11:00 Legend Double Dagger -9.8 -10.9 92 31 21 16.1 100.55   -18 Snow
12:00 Legend Double Dagger -10.6 -11.9 90 31 26 16.1 100.54   -20 LegendNANA
13:00 Legend Double Dagger -10.7 -12.0 90 31 26 8.1 100.54   -20 Fog
14:00 Legend Double Dagger -7.6 -8.5 93 33 28 12.9 100.52   -16 LegendNANA
15:00 Legend Double Dagger -9.3 -10.5 91 32 30 16.1 100.54   -19 LegendNANA
16:00 Legend Double Dagger -8.9 -9.9 93 32 26 16.1 100.53   -18 Snow
17:00 Legend Double Dagger -9.5 -10.6 92 32 30 16.1 100.52   -19 Snow
18:00 Legend Double Dagger -11.4 -12.6 91 31 28 16.1 100.52   -21 Snow
19:00 Legend Double Dagger -10.1 -11.1 92 31 24 14.5 100.50   -19 Snow
20:00 Legend Double Dagger -8.2 -9.0 94 33 30 11.3 100.50   -17 Snow
21:00 Legend Double Dagger -8.2 -9.0 94 33 28 16.1 100.49   -17 Snow
22:00 Legend Double Dagger -11.0 -12.2 91 31 26 6.4 100.49   -20 Snow
23:00 Legend Double Dagger -11.4 -12.6 91 31 28 8.1 100.48   -21 Snow

Notes on Data Quality.

Legend

  • E = Estimated
  • M = Missing
  • NA = Not Available
  • ‡ = Partner data that is not subject to review by the National Climate Archives
Date modified: